Time,TemperatureF,DewpointF,PressureIn,WindDirection,WindDirectionDegrees,WindSpeedMPH,WindSpeedGustMPH,Humidity,HourlyPrecipIn,Conditions,Clouds,dailyrainin,SolarRadiationWatts/m^2,SoftwareType,DateUTC
2013-03-19 00:21:00,44.0,37.0,-100.00,East,97,0.0,8.0,76,0.00,,,-99.99,0.000000,,2013-03-19 07:21:00,
2013-03-19 00:32:00,44.0,37.0,-100.00,East,97,0.0,8.0,76,0.00,,,-99.99,0.000000,,2013-03-19 07:32:00,
2013-03-19 00:42:00,44.0,37.0,-100.00,East,97,0.0,8.0,76,0.00,,,-99.99,0.000000,,2013-03-19 07:42:00,
2013-03-19 00:52:00,44.0,37.0,-100.00,East,97,0.0,8.0,76,0.00,,,-99.99,0.000000,,2013-03-19 07:52:00,
2013-03-19 01:22:00,45.0,35.0,-100.00,ESE,120,1.0,8.0,68,0.00,,,0.00,0.000000,,2013-03-19 08:22:00,
2013-03-19 01:32:00,45.0,35.0,-100.00,ESE,120,1.0,8.0,68,0.00,,,0.00,0.000000,,2013-03-19 08:32:00,
2013-03-19 01:42:00,45.0,35.0,-100.00,ESE,120,1.0,8.0,68,0.00,,,0.00,0.000000,,2013-03-19 08:42:00,
2013-03-19 01:52:00,45.0,35.0,-100.00,ESE,120,1.0,8.0,68,0.00,,,0.00,0.000000,,2013-03-19 08:52:00,
2013-03-19 02:22:00,43.0,33.0,-100.00,ESE,112,0.0,5.0,67,0.00,,,0.00,0.000000,,2013-03-19 09:22:00,
2013-03-19 02:32:00,43.0,33.0,-100.00,ESE,112,0.0,5.0,67,0.00,,,0.00,0.000000,,2013-03-19 09:32:00,
2013-03-19 02:42:00,43.0,33.0,-100.00,ESE,112,0.0,5.0,67,0.00,,,0.00,0.000000,,2013-03-19 09:42:00,
2013-03-19 02:52:00,43.0,33.0,-100.00,ESE,112,0.0,5.0,67,0.00,,,0.00,0.000000,,2013-03-19 09:52:00,
2013-03-19 03:23:00,42.0,34.0,-100.00,ESE,109,0.0,5.0,72,0.00,,,0.00,0.000000,,2013-03-19 10:23:00,
2013-03-19 03:32:00,42.0,34.0,-100.00,ESE,109,0.0,5.0,72,0.00,,,0.00,0.000000,,2013-03-19 10:32:00,
2013-03-19 03:42:00,42.0,34.0,-100.00,ESE,109,0.0,5.0,72,0.00,,,0.00,0.000000,,2013-03-19 10:42:00,
2013-03-19 03:52:00,42.0,34.0,-100.00,ESE,109,0.0,5.0,72,0.00,,,0.00,0.000000,,2013-03-19 10:52:00,
2013-03-19 04:22:00,43.0,35.0,-100.00,ESE,113,1.0,5.0,73,0.00,,,0.00,0.000000,,2013-03-19 11:22:00,
2013-03-19 04:32:00,43.0,35.0,-100.00,ESE,113,1.0,5.0,73,0.00,,,0.00,0.000000,,2013-03-19 11:32:00,
2013-03-19 04:42:00,43.0,35.0,-100.00,ESE,113,1.0,5.0,73,0.00,,,0.00,0.000000,,2013-03-19 11:42:00,
2013-03-19 04:52:00,43.0,35.0,-100.00,ESE,113,1.0,5.0,73,0.00,,,0.00,0.000000,,2013-03-19 11:52:00,
2013-03-19 05:22:00,39.0,35.0,-100.00,ESE,119,0.0,6.0,85,0.00,,,0.00,0.000000,,2013-03-19 12:22:00,
2013-03-19 05:32:00,39.0,35.0,-100.00,ESE,119,0.0,6.0,85,0.00,,,0.00,0.000000,,2013-03-19 12:32:00,
2013-03-19 05:42:00,39.0,35.0,-100.00,ESE,119,0.0,6.0,85,0.00,,,0.00,0.000000,,2013-03-19 12:42:00,
2013-03-19 05:51:00,39.0,35.0,-100.00,ESE,119,0.0,6.0,85,0.00,,,0.00,0.000000,,2013-03-19 12:51:00,
2013-03-19 06:22:00,42.0,33.0,-100.00,ESE,121,2.0,5.0,70,0.00,,,0.00,0.000000,,2013-03-19 13:22:00,
2013-03-19 06:32:00,42.0,33.0,-100.00,ESE,121,2.0,5.0,70,0.00,,,0.00,0.000000,,2013-03-19 13:32:00,
2013-03-19 06:42:00,42.0,33.0,-100.00,ESE,121,2.0,5.0,70,0.00,,,0.00,0.000000,,2013-03-19 13:42:00,
2013-03-19 06:52:00,42.0,33.0,-100.00,ESE,121,2.0,5.0,70,0.00,,,0.00,0.000000,,2013-03-19 13:52:00,
2013-03-19 07:22:00,41.0,33.0,-100.00,ESE,119,1.0,6.0,73,0.00,,,0.00,0.000000,,2013-03-19 14:22:00,
2013-03-19 07:32:00,41.0,33.0,-100.00,ESE,119,1.0,6.0,73,0.00,,,0.00,0.000000,,2013-03-19 14:32:00,
2013-03-19 07:42:00,41.0,33.0,-100.00,ESE,119,1.0,6.0,73,0.00,,,0.00,0.000000,,2013-03-19 14:42:00,
2013-03-19 07:52:00,41.0,33.0,-100.00,ESE,119,1.0,6.0,73,0.00,,,0.00,0.000000,,2013-03-19 14:52:00,
2013-03-19 08:22:00,40.0,34.0,-100.00,ESE,115,0.0,6.0,78,0.00,,,0.00,23.000000,,2013-03-19 15:22:00,
2013-03-19 08:33:00,40.0,34.0,-100.00,ESE,115,0.0,6.0,78,0.00,,,0.00,23.000000,,2013-03-19 15:33:00,
2013-03-19 08:43:00,40.0,34.0,-100.00,ESE,115,0.0,6.0,78,0.00,,,0.00,23.000000,,2013-03-19 15:43:00,
2013-03-19 08:52:00,40.0,34.0,-100.00,ESE,115,0.0,6.0,78,0.00,,,0.00,23.000000,,2013-03-19 15:52:00,
2013-03-19 09:23:00,55.0,35.0,-100.00,SE,134,0.0,6.0,47,0.00,,,0.00,66.000000,,2013-03-19 16:23:00,
2013-03-19 09:43:00,55.0,35.0,-100.00,SE,134,0.0,6.0,47,0.00,,,0.00,66.000000,,2013-03-19 16:43:00,
2013-03-19 09:53:00,55.0,35.0,-100.00,SE,134,0.0,6.0,47,0.00,,,0.00,66.000000,,2013-03-19 16:53:00,
2013-03-19 10:23:00,60.0,39.0,-100.00,West,279,0.0,5.0,46,0.00,,,0.00,194.000000,,2013-03-19 17:23:00,
2013-03-19 10:34:00,60.0,39.0,-100.00,West,279,0.0,5.0,46,0.00,,,0.00,194.000000,,2013-03-19 17:34:00,
2013-03-19 10:43:00,60.0,39.0,-100.00,West,279,0.0,5.0,46,0.00,,,0.00,194.000000,,2013-03-19 17:43:00,
2013-03-19 10:52:00,60.0,39.0,-100.00,West,279,0.0,5.0,46,0.00,,,0.00,194.000000,,2013-03-19 17:52:00,
2013-03-19 11:23:00,63.0,40.0,-100.00,WNW,287,4.0,7.0,42,0.00,,,0.00,694.000000,,2013-03-19 18:23:00,
2013-03-19 11:33:00,63.0,40.0,-100.00,WNW,287,4.0,7.0,42,0.00,,,0.00,694.000000,,2013-03-19 18:33:00,
2013-03-19 11:42:00,63.0,40.0,-100.00,WNW,287,4.0,7.0,42,0.00,,,0.00,694.000000,,2013-03-19 18:42:00,
2013-03-19 11:52:00,63.0,40.0,-100.00,WNW,287,4.0,7.0,42,0.00,,,0.00,694.000000,,2013-03-19 18:52:00,
2013-03-19 12:22:00,66.0,44.0,-100.00,WNW,287,3.0,8.0,45,0.00,,,0.00,887.000000,,2013-03-19 19:22:00,
2013-03-19 12:32:00,66.0,44.0,-100.00,WNW,287,3.0,8.0,45,0.00,,,0.00,887.000000,,2013-03-19 19:32:00,
2013-03-19 13:22:00,64.0,43.0,-100.00,West,272,4.0,13.0,47,0.00,,,0.00,983.000000,,2013-03-19 20:22:00,
2013-03-19 13:32:00,64.0,43.0,-100.00,West,272,4.0,13.0,47,0.00,,,0.00,983.000000,,2013-03-19 20:32:00,
2013-03-19 13:42:00,64.0,43.0,-100.00,West,272,4.0,13.0,47,0.00,,,0.00,983.000000,,2013-03-19 20:42:00,
2013-03-19 13:52:00,64.0,43.0,-100.00,West,272,4.0,13.0,47,0.00,,,0.00,983.000000,,2013-03-19 20:52:00,
2013-03-19 14:22:00,65.0,42.0,-100.00,West,276,5.0,10.0,43,0.00,,,0.00,987.000000,,2013-03-19 21:22:00,
2013-03-19 14:33:00,65.0,42.0,-100.00,West,276,5.0,10.0,43,0.00,,,0.00,987.000000,,2013-03-19 21:33:00,
2013-03-19 14:42:00,65.0,42.0,-100.00,West,276,5.0,10.0,43,0.00,,,0.00,987.000000,,2013-03-19 21:42:00,
2013-03-19 14:52:00,65.0,42.0,-100.00,West,276,5.0,10.0,43,0.00,,,0.00,987.000000,,2013-03-19 21:52:00,
2013-03-19 15:23:00,66.0,39.0,-100.00,SSW,197,3.0,10.0,37,0.00,,,0.00,917.000000,,2013-03-19 22:23:00,
2013-03-19 15:33:00,66.0,39.0,-100.00,SSW,197,3.0,10.0,37,0.00,,,0.00,917.000000,,2013-03-19 22:33:00,
2013-03-19 15:43:00,66.0,39.0,-100.00,SSW,197,3.0,10.0,37,0.00,,,0.00,917.000000,,2013-03-19 22:43:00,
2013-03-19 15:52:00,66.0,39.0,-100.00,SSW,197,3.0,10.0,37,0.00,,,0.00,917.000000,,2013-03-19 22:52:00,
2013-03-19 16:22:00,68.0,41.0,-100.00,West,280,5.0,11.0,37,0.00,,,0.00,805.000000,,2013-03-19 23:22:00,
2013-03-19 16:32:00,68.0,41.0,-100.00,West,280,5.0,11.0,37,0.00,,,0.00,805.000000,,2013-03-19 23:32:00,
2013-03-19 16:42:00,68.0,41.0,-100.00,West,280,5.0,11.0,37,0.00,,,0.00,805.000000,,2013-03-19 23:42:00,
2013-03-19 16:52:00,68.0,41.0,-100.00,West,280,5.0,11.0,37,0.00,,,0.00,805.000000,,2013-03-19 23:52:00,
2013-03-19 17:22:00,66.0,38.0,-100.00,WNW,286,5.0,11.0,36,0.00,,,0.00,592.000000,,2013-03-20 00:22:00,
2013-03-19 17:32:00,66.0,38.0,-100.00,WNW,286,5.0,11.0,36,0.00,,,0.00,592.000000,,2013-03-20 00:32:00,
2013-03-19 17:42:00,66.0,38.0,-100.00,WNW,286,5.0,11.0,36,0.00,,,0.00,592.000000,,2013-03-20 00:42:00,
2013-03-19 17:52:00,66.0,38.0,-100.00,WNW,286,5.0,11.0,36,0.00,,,0.00,592.000000,,2013-03-20 00:52:00,
2013-03-19 18:22:00,62.0,38.0,-100.00,WNW,295,1.0,10.0,41,0.00,,,0.00,340.000000,,2013-03-20 01:22:00,
2013-03-19 18:32:00,62.0,38.0,-100.00,WNW,295,1.0,10.0,41,0.00,,,0.00,340.000000,,2013-03-20 01:32:00,
2013-03-19 18:42:00,62.0,38.0,-100.00,WNW,295,1.0,10.0,41,0.00,,,0.00,340.000000,,2013-03-20 01:42:00,
2013-03-19 18:52:00,62.0,38.0,-100.00,WNW,295,1.0,10.0,41,0.00,,,0.00,340.000000,,2013-03-20 01:52:00,
2013-03-19 19:22:00,57.0,40.0,-100.00,SSW,212,0.0,7.0,52,0.00,,,0.00,80.000000,,2013-03-20 02:22:00,
2013-03-19 19:32:00,57.0,40.0,-100.00,SSW,212,0.0,7.0,52,0.00,,,0.00,80.000000,,2013-03-20 02:32:00,
2013-03-19 19:42:00,57.0,40.0,-100.00,SSW,212,0.0,7.0,52,0.00,,,0.00,80.000000,,2013-03-20 02:42:00,
2013-03-19 19:52:00,57.0,40.0,-100.00,SSW,212,0.0,7.0,52,0.00,,,0.00,80.000000,,2013-03-20 02:52:00,
2013-03-19 20:22:00,51.0,40.0,-100.00,ESE,111,0.0,4.0,66,0.00,,,0.00,1.000000,,2013-03-20 03:22:00,
2013-03-19 20:33:00,51.0,40.0,-100.00,ESE,111,0.0,4.0,66,0.00,,,0.00,1.000000,,2013-03-20 03:33:00,
2013-03-19 20:42:00,51.0,40.0,-100.00,ESE,111,0.0,4.0,66,0.00,,,0.00,1.000000,,2013-03-20 03:42:00,
2013-03-19 20:52:00,51.0,40.0,-100.00,ESE,111,0.0,4.0,66,0.00,,,0.00,1.000000,,2013-03-20 03:52:00,
2013-03-19 21:22:00,49.0,38.0,-100.00,ESE,112,2.0,9.0,65,0.00,,,0.00,0.000000,,2013-03-20 04:22:00,
2013-03-19 21:32:00,49.0,38.0,-100.00,ESE,112,2.0,9.0,65,0.00,,,0.00,0.000000,,2013-03-20 04:32:00,
2013-03-19 21:43:00,49.0,38.0,-100.00,ESE,112,2.0,9.0,65,0.00,,,0.00,0.000000,,2013-03-20 04:43:00,
2013-03-19 21:52:00,49.0,38.0,-100.00,ESE,112,2.0,9.0,65,0.00,,,0.00,0.000000,,2013-03-20 04:52:00,
2013-03-19 22:22:00,52.0,38.0,-100.00,ESE,115,1.0,7.0,58,0.00,,,0.00,0.000000,,2013-03-20 05:22:00,
2013-03-19 22:32:00,52.0,38.0,-100.00,ESE,115,1.0,7.0,58,0.00,,,0.00,0.000000,,2013-03-20 05:32:00,
2013-03-19 22:42:00,52.0,38.0,-100.00,ESE,115,1.0,7.0,58,0.00,,,0.00,0.000000,,2013-03-20 05:42:00,
2013-03-19 22:52:00,52.0,38.0,-100.00,ESE,115,1.0,7.0,58,0.00,,,0.00,0.000000,,2013-03-20 05:52:00,
2013-03-19 23:22:00,52.0,38.0,-100.00,SW,224,1.0,7.0,58,0.00,,,0.00,0.000000,,2013-03-20 06:22:00,
2013-03-19 23:32:00,52.0,38.0,-100.00,SW,224,1.0,7.0,58,0.00,,,0.00,0.000000,,2013-03-20 06:32:00,
2013-03-19 23:42:00,52.0,38.0,-100.00,SW,224,1.0,7.0,58,0.00,,,0.00,0.000000,,2013-03-20 06:42:00,
2013-03-19 23:52:00,52.0,38.0,-100.00,SW,224,1.0,7.0,58,0.00,,,0.00,0.000000,,2013-03-20 06:52:00,